EW4652 Weather Reports


Display with metric or nautical units.
time (UTC)temp
F
wind
direction
speed
MPH
gust
MPH
rain 1hr
in
rain 24hr
in
rain mn
in
humidity
%
barometer
mb
20260902071527 70 22 8.0 15.0 0.00 0.02 0.00 85 1013.7
20260902070021 72 53 11.0 27.0 0.00 0.02 0.00 82 1013.9
20260902064518 74 108 0.0 3.0 0.00 0.02 0.00 91 1012.3
20260902063018 74 94 2.0 6.0 0.00 0.02 0.00 91 1012.1
20260902061515 74 85 3.0 8.0 0.00 0.02 0.00 90 1012.1
20260902060010 73 80 4.0 9.0 0.00 0.02 0.00 90 1011.7
20260902054515 73 92 6.0 10.0 0.00 0.02 0.00 89 1011.3
20260902053004 73 69 5.0 10.0 0.00 0.02 0.00 89 1011.7
20260902051558 73 104 5.0 9.0 0.00 0.02 0.00 88 1012.1
20260902050055 73 98 5.0 7.0 0.00 0.02 0.00 88 1012.1
20260902044554 74 98 6.0 8.0 0.00 0.02 0.02 86 1012.1
20260902043055 74 90 4.0 9.0 0.00 0.02 0.02 86 1012.4
20260902041605 74 91 5.0 9.0 0.01 0.02 0.02 85 1012.3
20260902040051 74 79 6.0 11.0 0.02 0.02 0.02 85 1012.3
20260902034550 74 84 6.0 9.0 0.02 0.02 0.02 84 1012.5
20260902033054 74 74 5.0 8.0 0.02 0.02 0.02 83 1012.9
20260902031547 75 57 4.0 9.0 0.01 0.01 0.01 82 1012.8
20260902030049 76 57 4.0 6.0 0.00 0.00 0.00 81 1012.9
20260902024546 77 87 5.0 8.0 0.00 0.00 0.00 77 1012.8
20260902023047 77 92 3.0 6.0 0.00 0.00 0.00 76 1012.8
20260902021549 77 63 4.0 8.0 0.00 0.00 0.00 75 1012.7
20260902020045 77 58 3.0 8.0 0.00 0.00 0.00 78 1012.9
20260902014548 77 70 3.0 8.0 0.00 0.00 0.00 80 1012.8
20260902013043 77 86 3.0 6.0 0.00 0.00 0.00 80 1012.7
20260902011542 77 94 2.0 6.0 0.00 0.00 0.00 81 1012.7
20260902010042 76 51 3.0 4.0 0.00 0.00 0.00 84 1012.7
20260902004542 77 59 3.0 7.0 0.00 0.00 0.00 83 1012.6
20260902003047 78 27 3.0 6.0 0.00 0.00 0.00 82 1012.5
20260902001540 79 150 1.0 2.0 0.00 0.00 0.00 80 1012.5
20260902000039 79 150 2.0 5.0 0.00 0.00 0.00 78 1012.6
20260901234536 81 150 1.0 3.0 0.00 0.00 0.00 78 1012.7
20260901233037 82 150 1.0 3.0 0.00 0.00 0.00 73 1012.9
20260901231544 83 150 2.0 3.0 0.00 0.00 0.00 71 1012.7
20260901230037 83 151 2.0 6.0 0.00 0.00 0.00 71 1012.8
20260901224535 84 151 2.0 3.0 0.00 0.00 0.00 70 1013.0
20260901223037 84 151 3.0 5.0 0.00 0.00 0.00 68 1013.1
20260901221534 84 151 1.0 2.0 0.00 0.00 0.00 66 1013.5
20260901220055 85 151 2.0 5.0 0.00 0.00 0.00 63 1013.2
20260901214531 86 151 2.0 5.0 0.00 0.00 0.00 60 1013.0
20260901213100 87 188 1.0 4.0 0.00 0.00 0.00 54 1012.7
20260901211530 88 191 3.0 4.0 0.00 0.00 0.00 55 1013.0
20260901210028 87 190 3.0 5.0 0.00 0.00 0.00 56 1013.2
20260901204536 86 180 4.0 6.0 0.00 0.00 0.00 61 1013.3
20260901203046 86 176 1.0 4.0 0.00 0.00 0.00 60 1013.5
20260901201525 85 176 1.0 4.0 0.00 0.00 0.00 63 1013.6
20260901200031 84 176 2.0 5.0 0.00 0.00 0.00 62 1013.6
20260901194623 83 171 2.0 5.0 0.00 0.00 0.00 66 1013.8
20260901193023 81 87 1.0 2.0 0.00 0.00 0.00 77 1013.7
20260901191523 81 87 0.0 4.0 0.00 0.00 0.00 71 1014.0
20260901190021 81 108 5.0 8.0 0.00 0.00 0.00 72 1013.4
20260901184527 84 40 2.0 3.0 0.00 0.00 0.00 73 1015.2
20260901183027 86 40 0.0 3.0 0.00 0.00 0.00 55 1014.6
20260901181521 87 42 2.0 4.0 0.00 0.00 0.00 58 1014.4
20260901180017 87 37 2.0 4.0 0.00 0.00 0.00 56 1014.5
20260901174513 86 53 1.0 4.0 0.00 0.00 0.00 55 1014.6
20260901173010 86 21 1.0 4.0 0.00 0.00 0.00 60 1014.6
20260901171508 85 88 2.0 5.0 0.00 0.00 0.00 65 1014.7
20260901170005 85 76 2.0 5.0 0.00 0.00 0.00 62 1014.8
20260901164504 84 325 1.0 9.0 0.00 0.00 0.00 66 1014.7
20260901163100 84 315 1.0 5.0 0.00 0.00 0.00 71 1014.7
20260901161557 83 323 0.0 5.0 0.00 0.00 0.00 72 1014.8
20260901160056 82 5 1.0 5.0 0.00 0.00 0.00 76 1014.7
20260901154552 81 303 2.0 4.0 0.00 0.00 0.00 77 1014.7
20260901153050 81 297 0.0 5.0 0.00 0.00 0.00 77 1014.7
20260901151546 81 289 1.0 2.0 0.00 0.00 0.00 81 1014.5
20260901150042 78 289 0.0 2.0 0.00 0.00 0.00 82 1014.7
20260901144540 78 289 0.0 4.0 0.00 0.00 0.00 84 1014.9
20260901143043 77 325 1.0 3.0 0.00 0.00 0.00 83 1014.9
20260901141533 77 331 1.0 2.0 0.00 0.00 0.00 85 1014.8
20260901140042 75 331 0.0 2.0 0.00 0.00 0.00 83 1014.8
20260901134527 74 331 1.0 3.0 0.00 0.00 0.00 88 1014.8
20260901133024 71 331 0.0 1.0 0.00 0.00 0.00 96 1014.8
20260901131516 69 331 0.0 1.0 0.00 0.00 0.00 96 1014.8
20260901130033 68 331 0.0 1.0 0.00 0.00 0.00 96 1014.7
20260901124613 66 331 0.0 0.0 0.00 0.00 0.00 96 1014.9
20260901123018 65 331 1.0 2.0 0.00 0.00 0.00 96 1014.9
20260901121506 65 331 0.0 1.0 0.00 0.00 0.00 96 1015.0
20260901120004 64 331 0.0 1.0 0.00 0.00 0.00 95 1014.9
20260901114600 64 331 0.0 1.0 0.00 0.00 0.00 95 1014.8
20260901113059 64 331 0.0 1.0 0.00 0.00 0.00 94 1014.4
20260901111555 65 331 0.0 1.0 0.00 0.00 0.00 94 1014.1
20260901110058 65 331 0.0 1.0 0.00 0.00 0.00 94 1014.0
20260901104555 66 331 0.0 2.0 0.00 0.00 0.00 94 1014.1
20260901103051 67 331 1.0 2.0 0.00 0.00 0.00 96 1014.0
20260901101551 66 331 2.0 3.0 0.00 0.00 0.00 96 1014.2
20260901100051 65 286 1.0 2.0 0.00 0.00 0.00 96 1014.1
20260901094551 65 286 0.0 1.0 0.00 0.00 0.00 95 1014.1
20260901093048 65 286 0.0 2.0 0.00 0.00 0.00 96 1013.9
20260901091547 65 286 0.0 1.0 0.00 0.00 0.00 96 1013.9
20260901090046 65 286 0.0 1.0 0.00 0.00 0.00 95 1014.1
20260901084546 66 286 0.0 1.0 0.00 0.00 0.00 95 1013.9
20260901083044 66 286 1.0 2.0 0.00 0.00 0.00 95 1013.7
20260901081541 66 286 0.0 2.0 0.00 0.00 0.00 95 1013.7
20260901080040 67 286 0.0 1.0 0.00 0.00 0.00 95 1013.7
20260901074538 69 286 0.0 1.0 0.00 0.00 0.00 94 1013.9
20260901073037 70 286 0.0 1.0 0.00 0.00 0.00 96 1013.9